Location: Caltech
(34.1382°N, 118.1253°W)
Time: 07:16:23
(UTC-07:00)

Oscar 19 - Visible Passes

Search period start: 05 May 2016 00:00
Search period end: 15 May 2016 00:00
Orbit: 775 x 790 km, 98.5° (Epoch: 04 May)

Date Brightness Start Highest point End Pass type
(mag) Time Alt. Az. Time Alt. Az. Time Alt. Az.
05 May 13.0 01:29:13 10° NE 01:30:47 17° NE 01:30:47 17° NE visible
05 May 12.0 03:08:08 10° N 03:11:20 28° NW 03:11:20 28° NW visible
06 May 11.8 02:35:57 10° N 02:39:15 39° N 02:39:15 39° N visible
07 May 12.2 02:04:14 10° NNE 02:07:09 32° NE 02:07:09 32° NE visible
07 May 12.6 03:45:18 10° NNW 03:47:43 15° WNW 03:47:43 15° WNW visible
08 May 12.9 01:33:06 10° NE 01:35:03 19° ENE 01:35:03 19° ENE visible
08 May 12.0 03:12:13 10° N 03:15:37 27° NW 03:15:37 27° NW visible
09 May 11.6 02:39:58 10° N 02:43:31 42° NNW 02:43:31 42° NNW visible
10 May 11.9 02:08:12 10° NNE 02:11:25 37° NE 02:11:25 37° NE visible
10 May 12.7 03:49:35 10° NW 03:51:58 14° WNW 03:51:58 14° WNW visible
11 May 12.7 01:36:58 10° NE 01:39:19 22° ENE 01:39:19 22° ENE visible
11 May 12.0 03:16:20 10° NNW 03:19:52 26° NW 03:19:52 26° NW visible
12 May 13.3 01:06:51 10° ENE 01:07:12 11° ENE 01:07:12 11° ENE visible
12 May 11.5 02:44:00 10° N 02:47:46 44° NNW 02:47:46 44° NNW visible
13 May 11.7 02:12:10 10° NNE 02:15:39 42° NNE 02:15:39 42° NNE visible
13 May 12.7 03:53:58 10° NW 03:56:01 12° WNW 03:56:13 12° WNW visible
14 May 12.5 01:40:52 10° NE 01:43:33 25° ENE 01:43:33 25° ENE visible
14 May 12.1 03:20:27 10° NNW 03:24:07 25° WNW 03:24:07 25° WNW visible
